COMS 1

Last updated on June 19, 2019, 3:33 a.m. UTC

1 36744U 10032A   19169.40932007 -.00000351  00000-0  00000+0 0  9990
2 36744   0.0441  73.3418 0001214  12.5132  96.0034  1.00271172 33024
UTC
Height (km)
Latitude
Longitude
Inclination
Orbital Period
UTC large
Height (km)
Speed (km/s)
/
Latitude / Longitude
Inclination (degrees)
Orbital Period (minutes)
Azimuth
Elevation
Range (km)
Doppler Factor
iOS Compass Heading
iOS Angle

Next 30 passes for location: Hong Kong

Rise time Rise Azimuth (degrees) Set time Set Azimuth (degrees) Duration Max altitude (degrees)

No matching passes for this satellites